| time (UTC) | temp F | wind direction | speed knots | gust knots | rain 1hr in | rain 24hr in | rain mn in | humidity % | barometer mb |
| 20260906052503 | 76 | 76 | 8.7 | 13.0 | 0.00 | 0.39 | 0.00 | 86 | 1010.5 |
| 20260906052004 | 76 | 67 | 7.8 | 13.0 | 0.00 | 0.39 | 0.00 | 87 | 1010.5 |
| 20260906051503 | 76 | 72 | 8.7 | 15.6 | 0.00 | 0.39 | 0.00 | 88 | 1010.6 |
| 20260906051004 | 76 | 57 | 7.8 | 11.3 | 0.00 | 0.39 | 0.00 | 91 | 1010.7 |
| 20260906050003 | 75 | 47 | 5.2 | 10.4 | 0.00 | 0.39 | 0.00 | 92 | 1010.8 |
| 20260906045503 | 74 | 45 | 5.2 | 8.7 | 0.00 | 0.39 | 0.39 | 92 | 1010.7 |
| 20260906045003 | 73 | 65 | 3.5 | 5.2 | 0.00 | 0.39 | 0.39 | 94 | 1010.4 |
| 20260906044003 | 73 | 76 | 0.9 | 1.7 | 0.00 | 0.39 | 0.39 | 94 | 1010.2 |
| 20260906043003 | 72 | 65 | 0.0 | 0.0 | 0.00 | 0.39 | 0.39 | 95 | 1010.2 |
| 20260906042504 | 72 | 70 | 0.0 | 0.0 | 0.00 | 0.39 | 0.39 | 95 | 1010.2 |
| 20260906041503 | 73 | 70 | 0.0 | 0.0 | 0.00 | 0.39 | 0.39 | 95 | 1010.2 |
| 20260906041003 | 73 | 70 | 0.0 | 0.0 | 0.00 | 0.39 | 0.39 | 95 | 1010.3 |
| 20260906035504 | 72 | 99 | 0.0 | 0.0 | 0.00 | 0.39 | 0.39 | 95 | 1010.4 |
| 20260906035004 | 72 | 99 | 0.0 | 0.0 | 0.00 | 0.39 | 0.39 | 96 | 1010.4 |
| 20260906034503 | 72 | 99 | 0.0 | 0.0 | 0.00 | 0.39 | 0.39 | 95 | 1010.4 |
| 20260906034003 | 72 | 99 | 0.0 | 0.0 | 0.00 | 0.39 | 0.39 | 95 | 1010.3 |
| 20260906033003 | 72 | 99 | 0.0 | 0.0 | 0.00 | 0.39 | 0.39 | 95 | 1010.4 |
| 20260906032003 | 73 | 99 | 0.0 | 0.0 | 0.00 | 0.39 | 0.39 | 96 | 1010.4 |
| 20260906031504 | 73 | 99 | 0.0 | 0.0 | 0.00 | 0.39 | 0.39 | 96 | 1010.3 |
| 20260906031003 | 73 | 99 | 0.0 | 0.0 | 0.00 | 0.39 | 0.39 | 96 | 1010.2 |
| 20260906030503 | 73 | 99 | 0.0 | 0.0 | 0.00 | 0.39 | 0.39 | 95 | 1010.1 |
| 20260906030003 | 73 | 99 | 0.0 | 0.0 | 0.00 | 0.39 | 0.39 | 95 | 1010.0 |
| 20260906025503 | 73 | 99 | 0.0 | 0.0 | 0.00 | 0.39 | 0.39 | 96 | 1010.0 |
| 20260906025003 | 73 | 99 | 0.0 | 0.0 | 0.00 | 0.39 | 0.39 | 96 | 1010.1 |
| 20260906024504 | 73 | 99 | 0.0 | 0.0 | 0.00 | 0.39 | 0.39 | 96 | 1009.9 |
| 20260906024003 | 73 | 99 | 0.0 | 0.0 | 0.00 | 0.39 | 0.39 | 95 | 1009.8 |
| 20260906023503 | 73 | 99 | 0.0 | 0.0 | 0.00 | 0.39 | 0.39 | 95 | 1009.8 |
| 20260906023004 | 73 | 99 | 0.0 | 0.0 | 0.00 | 0.39 | 0.39 | 95 | 1009.7 |
| 20260906022503 | 73 | 99 | 0.0 | 0.0 | 0.00 | 0.39 | 0.39 | 95 | 1009.7 |
| 20260906022003 | 73 | 99 | 0.0 | 0.0 | 0.00 | 0.39 | 0.39 | 95 | 1009.6 |
| 20260906021503 | 73 | 99 | 0.0 | 0.0 | 0.00 | 0.39 | 0.39 | 95 | 1009.6 |
| 20260906021003 | 73 | 99 | 0.0 | 0.0 | 0.00 | 0.39 | 0.39 | 95 | 1009.4 |
| 20260906020503 | 73 | 99 | 0.0 | 0.0 | 0.00 | 0.39 | 0.39 | 95 | 1009.3 |
| 20260906020003 | 73 | 99 | 0.0 | 0.0 | 0.00 | 0.39 | 0.39 | 95 | 1009.3 |
| 20260906015503 | 73 | 99 | 0.0 | 0.0 | 0.00 | 0.39 | 0.39 | 95 | 1009.2 |
| 20260906015004 | 73 | 99 | 0.0 | 0.0 | 0.00 | 0.39 | 0.39 | 95 | 1009.1 |
| 20260906014003 | 73 | 99 | 0.0 | 0.0 | 0.00 | 0.39 | 0.39 | 94 | 1009.2 |
| 20260906013503 | 73 | 99 | 0.0 | 0.0 | 0.00 | 0.39 | 0.39 | 94 | 1009.1 |
| 20260906013003 | 74 | 99 | 0.0 | 0.0 | 0.00 | 0.39 | 0.39 | 93 | 1009.0 |
| 20260906012503 | 74 | 99 | 0.0 | 0.0 | 0.00 | 0.39 | 0.39 | 93 | 1009.2 |
| 20260906012003 | 74 | 84 | 0.0 | 0.0 | 0.00 | 0.39 | 0.39 | 92 | 1009.2 |
| 20260906011504 | 74 | 82 | 0.0 | 0.0 | 0.00 | 0.39 | 0.39 | 92 | 1009.2 |
| 20260906011003 | 74 | 82 | 0.0 | 0.0 | 0.00 | 0.39 | 0.39 | 92 | 1009.2 |
| 20260906010503 | 74 | 76 | 0.0 | 0.9 | 0.00 | 0.39 | 0.39 | 92 | 1009.2 |
| 20260906005503 | 74 | 147 | 0.0 | 0.0 | 0.00 | 0.39 | 0.39 | 94 | 1009.0 |
| 20260906005003 | 74 | 147 | 0.0 | 0.0 | 0.00 | 0.39 | 0.39 | 93 | 1009.0 |
| 20260906004504 | 74 | 147 | 0.0 | 0.0 | 0.00 | 0.39 | 0.39 | 93 | 1009.1 |
| 20260906004003 | 74 | 147 | 0.0 | 0.9 | 0.00 | 0.39 | 0.39 | 93 | 1009.0 |
| 20260906003504 | 74 | 123 | 0.0 | 0.9 | 0.00 | 0.39 | 0.39 | 92 | 1009.2 |
| 20260906003003 | 74 | 92 | 0.9 | 0.9 | 0.00 | 0.39 | 0.39 | 92 | 1009.1 |
| 20260906002503 | 74 | 91 | 0.9 | 1.7 | 0.00 | 0.39 | 0.39 | 92 | 1009.1 |
| 20260906001503 | 74 | 70 | 0.0 | 0.0 | 0.00 | 0.39 | 0.39 | 91 | 1009.0 |
| 20260906001004 | 75 | 70 | 0.0 | 1.7 | 0.00 | 0.39 | 0.39 | 91 | 1009.0 |
| 20260906000503 | 75 | 37 | 0.0 | 0.9 | 0.00 | 0.39 | 0.39 | 91 | 1009.0 |
| 20260906000003 | 75 | 38 | 0.0 | 0.9 | 0.00 | 0.39 | 0.39 | 91 | 1008.6 |
| 20260905235504 | 75 | 92 | 0.9 | 0.9 | 0.00 | 0.39 | 0.39 | 92 | 1008.6 |
| 20260905235004 | 75 | 102 | 0.0 | 0.0 | 0.00 | 0.39 | 0.39 | 92 | 1008.7 |
| 20260905234503 | 75 | 102 | 0.0 | 1.7 | 0.00 | 0.39 | 0.39 | 91 | 1008.8 |
| 20260905234003 | 75 | 123 | 0.0 | 1.7 | 0.00 | 0.39 | 0.39 | 91 | 1008.8 |
| 20260905233503 | 75 | 134 | 0.0 | 1.7 | 0.01 | 0.39 | 0.39 | 90 | 1008.8 |
| 20260905233003 | 75 | 154 | 0.0 | 1.7 | 0.04 | 0.39 | 0.39 | 91 | 1009.1 |
| 20260905232503 | 75 | 153 | 0.0 | 1.7 | 0.10 | 0.39 | 0.39 | 91 | 1009.2 |
| 20260905232004 | 75 | 123 | 0.0 | 1.7 | 0.17 | 0.39 | 0.39 | 92 | 1009.4 |
| 20260905231503 | 74 | 133 | 0.0 | 0.9 | 0.21 | 0.39 | 0.39 | 92 | 1009.3 |
| 20260905231003 | 74 | 140 | 0.9 | 1.7 | 0.28 | 0.39 | 0.39 | 91 | 1009.3 |
| 20260905230503 | 74 | 138 | 0.9 | 4.3 | 0.36 | 0.39 | 0.39 | 89 | 1009.2 |
| 20260905230004 | 74 | 137 | 1.7 | 5.2 | 0.37 | 0.39 | 0.39 | 87 | 1009.5 |
| 20260905225004 | 74 | 9 | 1.7 | 7.0 | 0.39 | 0.39 | 0.39 | 87 | 1009.6 |
| 20260905224503 | 74 | 120 | 2.6 | 7.0 | 0.39 | 0.39 | 0.39 | 87 | 1009.3 |
| 20260905224004 | 74 | 131 | 2.6 | 11.3 | 0.39 | 0.39 | 0.39 | 88 | 1009.6 |
| 20260905223503 | 74 | 80 | 10.4 | 15.6 | 0.38 | 0.38 | 0.38 | 87 | 1009.8 |
| 20260905222504 | 76 | 242 | 5.2 | 11.3 | 0.29 | 0.29 | 0.29 | 78 | 1009.5 |
| 20260905221503 | 79 | 282 | 8.7 | 24.3 | 0.18 | 0.18 | 0.18 | 78 | 1009.4 |
| 20260905221003 | 84 | 5 | 10.4 | 24.3 | 0.11 | 0.11 | 0.11 | 73 | 1008.9 |
| 20260905220504 | 88 | 359 | 2.6 | 6.1 | 0.03 | 0.03 | 0.03 | 70 | 1008.6 |
| 20260905220004 | 92 | 30 | 4.3 | 10.4 | 0.02 | 0.02 | 0.02 | 62 | 1008.3 |
| 20260905215003 | 97 | 148 | 0.0 | 0.9 | 0.00 | 0.00 | 0.00 | 54 | 1008.2 |
| 20260905214503 | 97 | 135 | 0.0 | 0.9 | 0.00 | 0.00 | 0.00 | 55 | 1008.2 |
| 20260905214004 | 97 | 82 | 0.9 | 1.7 | 0.00 | 0.00 | 0.00 | 53 | 1008.3 |
| 20260905213503 | 97 | 93 | 0.0 | 1.7 | 0.00 | 0.00 | 0.00 | 51 | 1008.2 |
| 20260905213004 | 97 | 98 | 0.0 | 0.9 | 0.00 | 0.00 | 0.00 | 52 | 1008.3 |
| 20260905212504 | 98 | 83 | 0.9 | 1.7 | 0.00 | 0.00 | 0.00 | 52 | 1008.4 |
| 20260905212004 | 97 | 137 | 0.0 | 0.9 | 0.00 | 0.00 | 0.00 | 54 | 1008.4 |
| 20260905211504 | 97 | 96 | 0.9 | 1.7 | 0.00 | 0.00 | 0.00 | 50 | 1008.4 |
| 20260905211004 | 98 | 115 | 1.7 | 2.6 | 0.00 | 0.00 | 0.00 | 53 | 1008.4 |
| 20260905205503 | 97 | 154 | 0.0 | 0.9 | 0.00 | 0.00 | 0.00 | 54 | 1008.4 |
| 20260905205003 | 97 | 176 | 0.0 | 2.6 | 0.00 | 0.00 | 0.00 | 51 | 1008.4 |
| 20260905204503 | 97 | 90 | 0.9 | 1.7 | 0.00 | 0.00 | 0.00 | 51 | 1008.5 |
| 20260905204003 | 96 | 5 | 0.9 | 1.7 | 0.00 | 0.00 | 0.00 | 52 | 1008.5 |
| 20260905203503 | 95 | 90 | 0.9 | 4.3 | 0.00 | 0.00 | 0.00 | 52 | 1008.5 |
| 20260905203003 | 96 | 70 | 2.6 | 5.2 | 0.00 | 0.00 | 0.00 | 53 | 1008.7 |
| 20260905202503 | 96 | 24 | 1.7 | 2.6 | 0.00 | 0.00 | 0.00 | 53 | 1008.8 |
| 20260905201504 | 95 | 305 | 0.9 | 1.7 | 0.00 | 0.00 | 0.00 | 54 | 1009.0 |
| 20260905201004 | 94 | 309 | 0.9 | 2.6 | 0.00 | 0.00 | 0.00 | 57 | 1009.0 |
| 20260905200504 | 94 | 298 | 0.9 | 2.6 | 0.00 | 0.00 | 0.00 | 57 | 1009.2 |
| 20260905200004 | 94 | 38 | 0.9 | 1.7 | 0.00 | 0.00 | 0.00 | 57 | 1009.3 |
| 20260905195504 | 95 | 0 | 0.9 | 1.7 | 0.00 | 0.00 | 0.00 | 54 | 1009.3 |
| 20260905195004 | 95 | 34 | 0.9 | 2.6 | 0.00 | 0.00 | 0.00 | 54 | 1009.4 |
| 20260905194504 | 95 | 352 | 0.9 | 5.2 | 0.00 | 0.00 | 0.00 | 53 | 1009.5 |
| 20260905193503 | 95 | 299 | 0.9 | 1.7 | 0.00 | 0.00 | 0.00 | 55 | 1009.5 |
| 20260905193003 | 95 | 319 | 0.9 | 2.6 | 0.00 | 0.00 | 0.00 | 55 | 1009.6 |
| 20260905192503 | 95 | 304 | 0.9 | 2.6 | 0.00 | 0.00 | 0.00 | 56 | 1009.7 |
| 20260905192003 | 95 | 89 | 0.0 | 6.1 | 0.00 | 0.00 | 0.00 | 55 | 1009.6 |
| 20260905191504 | 95 | 13 | 0.9 | 4.3 | 0.00 | 0.00 | 0.00 | 56 | 1009.7 |
| 20260905191003 | 95 | 324 | 0.9 | 4.3 | 0.00 | 0.00 | 0.00 | 57 | 1009.8 |
| 20260905190503 | 95 | 74 | 2.6 | 5.2 | 0.00 | 0.00 | 0.00 | 54 | 1009.9 |
| 20260905190004 | 95 | 41 | 0.9 | 2.6 | 0.00 | 0.00 | 0.00 | 55 | 1009.9 |
| 20260905185503 | 94 | 29 | 0.9 | 1.7 | 0.00 | 0.00 | 0.00 | 58 | 1010.1 |
| 20260905185004 | 94 | 47 | 0.0 | 1.7 | 0.00 | 0.00 | 0.00 | 56 | 1010.2 |
| 20260905184503 | 94 | 24 | 0.9 | 2.6 | 0.00 | 0.00 | 0.00 | 56 | 1010.3 |
| 20260905184003 | 95 | 11 | 1.7 | 4.3 | 0.00 | 0.00 | 0.00 | 55 | 1010.3 |
| 20260905183504 | 95 | 297 | 0.9 | 1.7 | 0.00 | 0.00 | 0.00 | 54 | 1010.3 |
| 20260905183004 | 95 | 35 | 0.9 | 2.6 | 0.00 | 0.00 | 0.00 | 55 | 1010.4 |
| 20260905182503 | 95 | 90 | 1.7 | 7.8 | 0.00 | 0.00 | 0.00 | 55 | 1010.4 |
| 20260905181503 | 95 | 74 | 2.6 | 5.2 | 0.00 | 0.00 | 0.00 | 54 | 1010.6 |
| 20260905181003 | 94 | 56 | 2.6 | 7.0 | 0.00 | 0.00 | 0.00 | 57 | 1010.7 |
| 20260905180503 | 94 | 58 | 2.6 | 8.7 | 0.00 | 0.00 | 0.00 | 55 | 1010.7 |
| 20260905180003 | 94 | 105 | 0.9 | 2.6 | 0.00 | 0.00 | 0.00 | 56 | 1010.7 |
| 20260905175503 | 94 | 72 | 3.5 | 7.0 | 0.00 | 0.00 | 0.00 | 54 | 1010.8 |
| 20260905175003 | 94 | 139 | 0.9 | 4.3 | 0.00 | 0.00 | 0.00 | 56 | 1010.8 |
| 20260905173503 | 93 | 172 | 1.7 | 2.6 | 0.00 | 0.00 | 0.00 | 56 | 1010.9 |
| 20260905173004 | 93 | 168 | 0.9 | 2.6 | 0.00 | 0.00 | 0.00 | 57 | 1011.0 |
| 20260905172503 | 93 | 165 | 1.7 | 2.6 | 0.00 | 0.00 | 0.00 | 56 | 1011.0 |
| 20260905172003 | 93 | 163 | 2.6 | 2.6 | 0.00 | 0.00 | 0.00 | 57 | 1011.0 |
| 20260905171503 | 93 | 227 | 0.9 | 2.6 | 0.00 | 0.00 | 0.00 | 61 | 1011.0 |
| 20260905170004 | 93 | 222 | 0.9 | 2.6 | 0.00 | 0.00 | 0.00 | 62 | 1011.1 |
| 20260905165504 | 93 | 169 | 1.7 | 2.6 | 0.00 | 0.00 | 0.00 | 62 | 1011.2 |
| 20260905165003 | 92 | 172 | 0.9 | 2.6 | 0.00 | 0.00 | 0.00 | 63 | 1011.3 |
| 20260905164504 | 92 | 177 | 0.9 | 2.6 | 0.00 | 0.00 | 0.00 | 66 | 1011.5 |
| 20260905164004 | 91 | 168 | 0.9 | 2.6 | 0.00 | 0.00 | 0.00 | 65 | 1011.5 |
| 20260905163504 | 91 | 165 | 4.3 | 6.1 | 0.00 | 0.00 | 0.00 | 63 | 1011.6 |
| 20260905162503 | 92 | 218 | 1.7 | 2.6 | 0.00 | 0.00 | 0.00 | 64 | 1011.7 |
| 20260905162003 | 92 | 224 | 1.7 | 4.3 | 0.00 | 0.00 | 0.00 | 62 | 1011.9 |
| 20260905161504 | 92 | 181 | 0.0 | 1.7 | 0.00 | 0.00 | 0.00 | 63 | 1011.9 |
| 20260905161003 | 91 | 220 | 0.9 | 2.6 | 0.00 | 0.00 | 0.00 | 63 | 1011.9 |
| 20260905160503 | 91 | 221 | 0.0 | 1.7 | 0.00 | 0.00 | 0.00 | 67 | 1011.9 |
| 20260905160003 | 91 | 226 | 0.9 | 2.6 | 0.00 | 0.00 | 0.00 | 64 | 1012.0 |
| 20260905155503 | 91 | 186 | 0.0 | 2.6 | 0.00 | 0.00 | 0.00 | 65 | 1012.0 |
| 20260905155004 | 91 | 218 | 0.9 | 1.7 | 0.00 | 0.00 | 0.00 | 65 | 1012.0 |
| 20260905154503 | 90 | 232 | 0.9 | 1.7 | 0.00 | 0.00 | 0.00 | 66 | 1012.0 |
| 20260905154004 | 89 | 231 | 0.0 | 1.7 | 0.00 | 0.00 | 0.00 | 68 | 1012.1 |
| 20260905153504 | 89 | 235 | 0.9 | 2.6 | 0.00 | 0.00 | 0.00 | 69 | 1012.1 |
| 20260905153004 | 89 | 235 | 0.9 | 2.6 | 0.00 | 0.00 | 0.00 | 72 | 1012.1 |
| 20260905152504 | 88 | 227 | 0.9 | 2.6 | 0.00 | 0.00 | 0.00 | 68 | 1012.1 |
| 20260905152004 | 88 | 212 | 1.7 | 2.6 | 0.00 | 0.00 | 0.00 | 66 | 1012.1 |
| 20260905151504 | 89 | 232 | 0.0 | 2.6 | 0.00 | 0.00 | 0.00 | 70 | 1012.1 |
| 20260905151004 | 89 | 230 | 0.0 | 0.0 | 0.00 | 0.00 | 0.00 | 70 | 1012.1 |
| 20260905150503 | 88 | 232 | 0.9 | 2.6 | 0.00 | 0.00 | 0.00 | 70 | 1012.0 |
| 20260905150003 | 88 | 229 | 0.0 | 0.9 | 0.00 | 0.00 | 0.00 | 69 | 1012.1 |
| 20260905145003 | 87 | 215 | 0.0 | 0.9 | 0.00 | 0.00 | 0.00 | 70 | 1012.2 |
| 20260905144503 | 87 | 235 | 0.0 | 1.7 | 0.00 | 0.00 | 0.00 | 72 | 1012.1 |
| 20260905144004 | 87 | 236 | 0.9 | 1.7 | 0.00 | 0.00 | 0.00 | 74 | 1012.2 |
| 20260905143504 | 89 | 227 | 0.9 | 1.7 | 0.00 | 0.00 | 0.00 | 71 | 1012.1 |
| 20260905143003 | 90 | 224 | 0.0 | 0.0 | 0.00 | 0.00 | 0.00 | 70 | 1012.2 |
| 20260905142504 | 90 | 223 | 0.0 | 0.0 | 0.00 | 0.00 | 0.00 | 75 | 1012.2 |
| 20260905142003 | 89 | 225 | 0.0 | 0.0 | 0.00 | 0.00 | 0.00 | 77 | 1012.3 |
| 20260905141503 | 88 | 225 | 0.0 | 0.0 | 0.00 | 0.00 | 0.00 | 79 | 1012.4 |
| 20260905141004 | 87 | 225 | 0.0 | 0.0 | 0.00 | 0.00 | 0.00 | 79 | 1012.4 |
| 20260905140503 | 87 | 224 | 0.0 | 0.0 | 0.00 | 0.00 | 0.00 | 79 | 1012.4 |
| 20260905135504 | 85 | 224 | 0.0 | 0.0 | 0.00 | 0.00 | 0.00 | 83 | 1012.5 |
| 20260905135003 | 83 | 224 | 0.0 | 0.0 | 0.00 | 0.00 | 0.00 | 84 | 1012.5 |
| 20260905134503 | 83 | 226 | 0.0 | 0.0 | 0.00 | 0.00 | 0.00 | 82 | 1012.6 |
| 20260905133504 | 84 | 224 | 0.0 | 0.0 | 0.00 | 0.00 | 0.00 | 82 | 1012.5 |
| 20260905132503 | 83 | 224 | 0.0 | 0.0 | 0.00 | 0.00 | 0.00 | 84 | 1012.3 |
| 20260905132003 | 82 | 224 | 0.0 | 0.0 | 0.00 | 0.00 | 0.00 | 87 | 1012.4 |
| 20260905131004 | 80 | 225 | 0.0 | 0.0 | 0.00 | 0.00 | 0.00 | 87 | 1012.6 |
| 20260905130504 | 80 | 226 | 0.0 | 0.0 | 0.00 | 0.00 | 0.00 | 89 | 1012.6 |
| 20260905130004 | 79 | 226 | 0.0 | 0.0 | 0.00 | 0.00 | 0.00 | 91 | 1012.6 |
| 20260905125003 | 77 | 226 | 0.0 | 0.0 | 0.00 | 0.00 | 0.00 | 94 | 1012.6 |
| 20260905124504 | 77 | 226 | 0.0 | 0.0 | 0.00 | 0.00 | 0.00 | 95 | 1012.6 |
| 20260905124004 | 76 | 226 | 0.0 | 0.0 | 0.00 | 0.00 | 0.00 | 97 | 1012.6 |
| 20260905123503 | 75 | 226 | 0.0 | 0.0 | 0.00 | 0.00 | 0.00 | 97 | 1012.6 |
| 20260905122503 | 74 | 226 | 0.0 | 0.0 | 0.00 | 0.00 | 0.00 | 97 | 1012.5 |
| 20260905122003 | 73 | 226 | 0.0 | 0.0 | 0.00 | 0.00 | 0.00 | 97 | 1012.4 |
| 20260905121504 | 73 | 219 | 0.0 | 0.0 | 0.00 | 0.00 | 0.00 | 97 | 1012.5 |
| 20260905121003 | 73 | 219 | 0.0 | 0.0 | 0.00 | 0.00 | 0.00 | 97 | 1012.5 |
| 20260905120503 | 72 | 219 | 0.0 | 0.0 | 0.00 | 0.00 | 0.00 | 97 | 1012.5 |
| 20260905120003 | 72 | 219 | 0.0 | 0.0 | 0.00 | 0.00 | 0.00 | 97 | 1012.5 |
| 20260905115503 | 72 | 219 | 0.0 | 0.0 | 0.00 | 0.00 | 0.00 | 96 | 1012.4 |
| 20260905115004 | 72 | 219 | 0.0 | 0.0 | 0.00 | 0.00 | 0.00 | 96 | 1012.3 |
| 20260905114503 | 72 | 219 | 0.0 | 0.0 | 0.00 | 0.00 | 0.00 | 97 | 1012.2 |
| 20260905114003 | 72 | 219 | 0.0 | 0.0 | 0.00 | 0.00 | 0.00 | 97 | 1012.1 |
| 20260905113503 | 72 | 219 | 0.0 | 0.0 | 0.00 | 0.00 | 0.00 | 97 | 1012.1 |
| 20260905113003 | 72 | 219 | 0.0 | 0.0 | 0.00 | 0.00 | 0.00 | 97 | 1012.1 |
| 20260905112504 | 72 | 219 | 0.0 | 0.0 | 0.00 | 0.00 | 0.00 | 97 | 1012.0 |
| 20260905111503 | 71 | 219 | 0.0 | 0.0 | 0.00 | 0.00 | 0.00 | 96 | 1011.8 |
| 20260905111004 | 72 | 219 | 0.0 | 0.0 | 0.00 | 0.00 | 0.00 | 96 | 1011.8 |
| 20260905110504 | 72 | 219 | 0.0 | 0.0 | 0.00 | 0.00 | 0.00 | 96 | 1011.7 |
| 20260905105503 | 72 | 219 | 0.0 | 0.0 | 0.00 | 0.00 | 0.00 | 96 | 1011.5 |
| 20260905105003 | 72 | 219 | 0.0 | 0.0 | 0.00 | 0.00 | 0.00 | 96 | 1011.5 |
| 20260905104503 | 72 | 219 | 0.0 | 0.0 | 0.00 | 0.00 | 0.00 | 96 | 1011.4 |
| 20260905104004 | 72 | 219 | 0.0 | 0.9 | 0.00 | 0.00 | 0.00 | 96 | 1011.4 |
| 20260905103504 | 72 | 213 | 0.0 | 0.0 | 0.00 | 0.00 | 0.00 | 96 | 1011.4 |
| 20260905103003 | 72 | 214 | 0.0 | 0.0 | 0.00 | 0.00 | 0.00 | 96 | 1011.3 |
| 20260905102504 | 72 | 214 | 0.0 | 0.0 | 0.00 | 0.00 | 0.00 | 96 | 1011.4 |
| 20260905102003 | 72 | 213 | 0.0 | 0.0 | 0.00 | 0.00 | 0.00 | 96 | 1011.4 |
| 20260905101504 | 72 | 213 | 0.0 | 0.0 | 0.00 | 0.00 | 0.00 | 96 | 1011.5 |
| 20260905101003 | 73 | 214 | 0.0 | 0.0 | 0.00 | 0.00 | 0.00 | 96 | 1011.4 |
| 20260905100504 | 73 | 214 | 0.0 | 0.0 | 0.00 | 0.00 | 0.00 | 96 | 1011.3 |
| 20260905100004 | 73 | 214 | 0.0 | 0.0 | 0.00 | 0.00 | 0.00 | 96 | 1011.3 |
| 20260905095504 | 73 | 213 | 0.0 | 0.0 | 0.00 | 0.00 | 0.00 | 96 | 1011.4 |
| 20260905095004 | 73 | 213 | 0.0 | 0.0 | 0.00 | 0.00 | 0.00 | 96 | 1011.4 |
| 20260905094504 | 73 | 227 | 0.0 | 0.0 | 0.00 | 0.00 | 0.00 | 96 | 1011.3 |
| 20260905094004 | 73 | 227 | 0.0 | 0.0 | 0.00 | 0.00 | 0.00 | 96 | 1011.2 |
| 20260905093503 | 73 | 227 | 0.0 | 0.0 | 0.00 | 0.00 | 0.00 | 96 | 1011.1 |
| 20260905093003 | 73 | 227 | 0.0 | 0.0 | 0.00 | 0.00 | 0.00 | 96 | 1011.1 |
| 20260905092003 | 73 | 227 | 0.0 | 0.0 | 0.00 | 0.00 | 0.00 | 96 | 1011.0 |
| 20260905091003 | 73 | 226 | 0.0 | 0.9 | 0.00 | 0.00 | 0.00 | 96 | 1011.0 |
| 20260905090503 | 73 | 226 | 0.0 | 0.0 | 0.00 | 0.00 | 0.00 | 96 | 1011.1 |
| 20260905090004 | 73 | 226 | 0.0 | 0.0 | 0.00 | 0.00 | 0.00 | 96 | 1011.1 |
| 20260905085503 | 73 | 226 | 0.0 | 0.0 | 0.00 | 0.00 | 0.00 | 96 | 1011.2 |
| 20260905084504 | 73 | 226 | 0.0 | 0.0 | 0.00 | 0.00 | 0.00 | 96 | 1011.1 |
| 20260905084004 | 73 | 226 | 0.0 | 0.0 | 0.00 | 0.00 | 0.00 | 95 | 1011.0 |
| 20260905083503 | 73 | 226 | 0.0 | 0.0 | 0.00 | 0.00 | 0.00 | 95 | 1011.1 |
| 20260905082503 | 73 | 226 | 0.0 | 0.0 | 0.00 | 0.00 | 0.00 | 95 | 1011.1 |
| 20260905081504 | 73 | 229 | 0.0 | 0.9 | 0.00 | 0.00 | 0.00 | 95 | 1011.1 |
| 20260905081003 | 73 | 229 | 0.0 | 0.9 | 0.00 | 0.00 | 0.00 | 95 | 1011.1 |
| 20260905080503 | 73 | 229 | 0.0 | 0.0 | 0.00 | 0.00 | 0.00 | 95 | 1011.0 |
| 20260905075504 | 73 | 229 | 0.0 | 0.9 | 0.00 | 0.00 | 0.00 | 95 | 1010.9 |
| 20260905074004 | 73 | 229 | 0.0 | 0.0 | 0.00 | 0.00 | 0.00 | 95 | 1010.9 |
| 20260905073504 | 74 | 229 | 0.0 | 0.0 | 0.00 | 0.00 | 0.00 | 95 | 1011.0 |
| 20260905073003 | 74 | 229 | 0.0 | 0.0 | 0.00 | 0.00 | 0.00 | 95 | 1011.0 |
| 20260905072503 | 74 | 229 | 0.0 | 0.0 | 0.00 | 0.00 | 0.00 | 95 | 1011.0 |
| 20260905072004 | 74 | 229 | 0.0 | 0.0 | 0.00 | 0.00 | 0.00 | 95 | 1011.0 |
| 20260905071503 | 74 | 229 | 0.0 | 0.9 | 0.00 | 0.00 | 0.00 | 96 | 1011.0 |
| 20260905071003 | 74 | 229 | 0.0 | 0.9 | 0.00 | 0.00 | 0.00 | 95 | 1011.0 |
| 20260905070504 | 73 | 229 | 0.0 | 0.0 | 0.00 | 0.00 | 0.00 | 95 | 1010.9 |
| 20260905070003 | 73 | 229 | 0.0 | 0.0 | 0.00 | 0.00 | 0.00 | 95 | 1010.9 |
| 20260905065503 | 73 | 229 | 0.0 | 0.0 | 0.00 | 0.00 | 0.00 | 95 | 1010.9 |
| 20260905065003 | 74 | 229 | 0.0 | 0.0 | 0.00 | 0.00 | 0.00 | 95 | 1011.0 |
| 20260905064504 | 74 | 229 | 0.0 | 0.0 | 0.00 | 0.00 | 0.00 | 95 | 1011.1 |
| 20260905064004 | 74 | 229 | 0.0 | 0.0 | 0.00 | 0.00 | 0.00 | 95 | 1011.2 |
| 20260905063503 | 74 | 229 | 0.0 | 0.0 | 0.00 | 0.00 | 0.00 | 95 | 1011.2 |
| 20260905062503 | 74 | 229 | 0.0 | 0.0 | 0.00 | 0.00 | 0.00 | 94 | 1011.4 |
| 20260905062003 | 74 | 229 | 0.0 | 0.0 | 0.00 | 0.00 | 0.00 | 94 | 1011.5 |
| 20260905061504 | 74 | 229 | 0.0 | 0.0 | 0.00 | 0.00 | 0.00 | 94 | 1011.5 |
| 20260905061004 | 74 | 229 | 0.0 | 0.0 | 0.00 | 0.00 | 0.00 | 94 | 1011.6 |
| 20260905060503 | 74 | 229 | 0.0 | 0.0 | 0.00 | 0.00 | 0.00 | 94 | 1011.5 |
| 20260905060003 | 74 | 229 | 0.0 | 0.0 | 0.00 | 0.00 | 0.00 | 94 | 1011.6 |
| 20260905055503 | 74 | 229 | 0.0 | 0.0 | 0.00 | 0.00 | 0.00 | 94 | 1011.6 |
| 20260905055004 | 74 | 229 | 0.0 | 0.0 | 0.00 | 0.00 | 0.00 | 94 | 1011.5 |
| 20260905054504 | 74 | 229 | 0.0 | 0.0 | 0.00 | 0.00 | 0.00 | 93 | 1011.5 |
| 20260905054003 | 75 | 229 | 0.0 | 0.0 | 0.00 | 0.00 | 0.00 | 93 | 1011.4 |
| 20260905053503 | 75 | 229 | 0.0 | 0.0 | 0.00 | 0.00 | 0.00 | 93 | 1011.4 |
| 20260905053003 | 75 | 229 | 0.0 | 0.0 | 0.00 | 0.00 | 0.00 | 93 | 1011.5 |